sat.trackr.live / text

‹ back to catalog

STARLINK-5694

NORAD 55481 · 2023-015AJ

PAYLOAD ACTIVE UNKNOWN

§ Identity

Operator
Country
US
Launch date
2023-02-02
Launch site
AFETR
Launch vehicle
Mass (kg)
RCS (m²)

Purposes: comms

External: N2YO · Heavens-Above · Gunter

§ Orbital elements

Epoch: 2026-05-25T01:26:59.004096Z

Period
94.27 min
Inclination
43.0041°
Eccentricity
0.0001996
Mean motion
15.27577418 rev/d
Perigee alt
481.7 km
Apogee alt
484.4 km
Semi-major
6,861.2 km
B*
1.7367e-5
RAAN
268.5713°
Arg perigee
289.6376°
Mean anomaly
70.4260°
Rev number
18,227

§ Raw data

STARLINK-56941 55481U 23015AJ  26145.06040514  .00000215  00000+0  17367-4 0  99972 55481  43.0041 268.5713 0001996 289.6376  70.4260 15.27577418182271

JSON: /api/v1/satellites/55481 · /tle

For live sub-satellite position, see the globe view (requires WebGL).

§ Visibility from observer

Set your observer location to see the next 7 days of passes ≥ 10°. The values pass through the URL so the page stays shareable.

No JS? Fill the form by hand. The geolocation button needs JavaScript.